Weather in Pecherniki

Russia / Ryazan Oblast     54°07′49″N   39°15′36″E
temp.,
°C
wind,
m/s
gust,
m/s
humid.,
%
clouds,
%
prec.,
mm/h
press.,
hPa
HPBL,
m
5 december, sun
sun500:00−3wsw368836 0.0 1014347
03:00−2sw368766 0.0 1014338
06:00−2sw4886100 0.0 1014344
09:00−2sw3783100 0.0 1015332
12:00−1sw3776100 0.0 1016390
15:00−1sw367514 0.0 1016332
18:00−2ssw35825 0.0 1017112
21:00−2ssw24815 0.0 1018110
6 december, mon
mon600:00−3ssw248150 0.0 101992
03:00−3ssw2379100 0.0 102079
06:00−3s2372100 0.0 102074
09:00−3sse2467100 0.0 1021106
12:00−1sse3762100 0.0 1022313
15:00−1se3662100 0.0 1022260
18:00−2se4864100 0.0 1022276
21:00−2se41065100 0.0 1022343
7 december, tue
tue700:00−2se51066100 0.0 1021370
03:00−2se51176100 0.0 1020417
06:00−2se71594100 0.7 1018493
09:00−1se81796100 3.2 1016604
12:00+1sse71695100 1.8 1014586
15:00+1sse61497100 3.1 1013486
18:00+2sse51398100 0.9 1012405
21:00+2s61498100 2.1 1011396
8 december, wed
wed800:00+4s81997100 1.9 1011489
03:00+2s71594100 4.8 1011424
06:00+2s61394100 0.8 1012348
09:00+1s5119571 1.0 1013276
12:00+2s4996100 0.0 1014268
15:00+1se3497100 0.0 101499
18:00+1se3496100 0.0 101579
21:00+1ese3596100 0.0 1015104
9 december, thu
thu900:000ese3696100 0.0 1015140
03:00+1ese3697100 0.0 1015189
06:00+1ese3598100 0.0 1014148
09:00+1se3698100 0.0 1015180
12:00+2se3697100 0.0 1014260
15:00+1se3597100 0.0 1014167
18:00+1se2597100 0.0 1015140
21:00+1se2397100 1.0 101586